This is the latest recevied weather packets stored in our database for station/object KI5RAB. If no packets are shown the sender has not sent any weather packets the latest 10 day(s).
| Time | Temp. | Humidity | Pressure | Rain* | Wind** | Luminosity | Snow |
|---|---|---|---|---|---|---|---|
| 1778080974 | 24.44° C | 90% | 1013.5 hPa | 0 mm | - | 115 W/m² | - |
| 1778080673 | 24.44° C | 91% | 1013.4 hPa | 0 mm | - | 96 W/m² | - |
| 1778080369 | 24.44° C | 91% | 1013.4 hPa | 0 mm | - | 86 W/m² | - |
| 1778080065 | 24.44° C | 91% | 1013.3 hPa | 0 mm | - | 80 W/m² | - |
| 1778079763 | 24.44° C | 92% | 1013.2 hPa | 0 mm | - | 75 W/m² | - |
| 1778079460 | 24.44° C | 92% | 1013.2 hPa | 0 mm | - | 63 W/m² | - |
| 1778079156 | 23.89° C | 92% | 1013.4 hPa | 0 mm | - | 47 W/m² | - |
| 1778078853 | 23.89° C | 92% | 1013.2 hPa | 0 mm | - | 38 W/m² | - |
| 1778078550 | 23.89° C | 92% | 1013.3 hPa | 0 mm | - | 42 W/m² | - |
| 1778078248 | 23.89° C | 92% | 1013.1 hPa | 0 mm | - | 35 W/m² | - |
| 1778077945 | 23.89° C | 92% | 1013.1 hPa | 0 mm | - | 28 W/m² | - |
| 1778077644 | 23.89° C | 92% | 1012.7 hPa | 0 mm | - | 29 W/m² | - |
| 1778077341 | 23.89° C | 92% | 1012.7 hPa | 0 mm | - | 28 W/m² | - |
| 1778077039 | 24.44° C | 91% | 1012.8 hPa | 0 mm | - | 29 W/m² | - |
| 1778076737 | 23.89° C | 91% | 1012.7 hPa | 0 mm | - | 17 W/m² | - |
| 1778076435 | 23.89° C | 91% | 1012.8 hPa | 0 mm | - | 22 W/m² | - |
| 1778076132 | 24.44° C | 91% | 1012.3 hPa | 0 mm | - | 24 W/m² | - |
| 1778075828 | 24.44° C | 91% | 1012.4 hPa | 0 mm | - | 27 W/m² | - |
| 1778075525 | 23.89° C | 91% | 1012.3 hPa | 0 mm | - | 29 W/m² | - |
| 1778075221 | 23.89° C | 91% | 1012.1 hPa | 0 mm | - | 28 W/m² | - |
| 1778074917 | 23.89° C | 90% | 1011.9 hPa | 0 mm | - | 17 W/m² | - |
| 1778074615 | 23.89° C | 90% | 1012.1 hPa | 0 mm | - | 37 W/m² | - |
| 1778074311 | 23.89° C | 91% | 1012.2 hPa | 0 mm | - | 30 W/m² | - |
| 1778074009 | 23.89° C | 91% | 1012 hPa | 0 mm | - | 35 W/m² | - |
| 1778073705 | 23.89° C | 91% | 1011.9 hPa | 0 mm | - | 32 W/m² | - |
* Rain latest hour (hover to see other rain measurements)
** Current wind speed in m/s (hover to see current wind gust speed)